パンスターズ彗星

C/2021 C5 ( PanSTARRS )

English version
Home page
Updated on May 29, 2022

---------------------------------------------------------------------

・ プロフィール

発見日 2021年2月12日
発見光度 21.0等
発見者 Pan-STARRS 1 telescope (Haleakala)

・ 写真集

・ 軌道要素

Epoch 2022 Jan. 21.0 TT = JDT 2459600.5
T 2023 Feb. 11.04131 TT                                 Rudenko
q   3.2418275            (2000.0)            P               Q
z  +0.0002211      Peri.  270.91706     -0.36142994     +0.81171584
 +/-0.0000036      Node   323.69022     -0.16791211     -0.54066954
e   0.9992834      Incl.   50.78520     -0.91715534     -0.22089327
From 190 observations 2020 Dec. 22-2022 Feb. 21, mean residual 0".5.

・ 星図

・ 光度変化

        m1 = 8.5 + 5 logΔ + 10.0 log r

---------------------------------------------------------------------

軌道要素はM.P.E.C. 2022-D36に掲載されたものです。
星図はステラナビゲータ Ver.10 (アストロアーツ) で作成したものです。
光度グラフはComet for Windowsで作成したものです。

---------------------------------------------------------------------

Copyright(C) Seiichi Yoshida (comet@aerith.net). All rights reserved.